This is the latest recevied weather packets stored in our database for station/object PE1RXF-13. If no packets are shown the sender has not sent any weather packets the latest 10 day(s).
| Time | Temp. | Humidity | Pressure | Rain* | Wind** | Luminosity | Snow |
|---|---|---|---|---|---|---|---|
| 1788539873 | 16.67° C | 99% | 1008.7 hPa | 0 mm | - | 16 W/m² | - |
| 1788538770 | 17.22° C | 99% | 1008.4 hPa | 0 mm | - | 19 W/m² | - |
| 1788537667 | 17.22° C | 99% | 1008.5 hPa | 0 mm | - | 12 W/m² | - |
| 1788536564 | 17.22° C | 99% | 1008.1 hPa | 0 mm | - | 21 W/m² | - |
| 1788535461 | 17.22° C | 99% | 1007.8 hPa | 0 mm | - | 27 W/m² | - |
| 1788534358 | 17.78° C | 99% | 1007.9 hPa | 0 mm | - | 28 W/m² | - |
| 1788533255 | 17.78° C | 99% | 1007.6 hPa | 0.76 mm | - | 41 W/m² | - |
| 1788532175 | 17.78° C | 99% | 1007.2 hPa | 0.76 mm | - | 44 W/m² | - |
| 1788531049 | 17.78° C | 99% | 1007.2 hPa | 0.76 mm | - | 63 W/m² | - |
| 1788529946 | 17.22° C | 99% | 1006.9 hPa | 1.27 mm | - | 36 W/m² | - |
| 1788528843 | 17.22° C | 99% | 1006.1 hPa | 1.27 mm | - | 28 W/m² | - |
| 1788527753 | 17.22° C | 99% | 1006.4 hPa | 1.27 mm | - | 37 W/m² | - |
| 1788526637 | 17.22° C | 99% | 1006.1 hPa | 1.27 mm | - | 33 W/m² | - |
| 1788525534 | 16.67° C | 99% | 1006.4 hPa | 0.76 mm | - | 41 W/m² | - |
| 1788524431 | 16.67° C | 99% | 1006.6 hPa | 0.76 mm | - | 28 W/m² | - |
| 1788523328 | 17.78° C | 99% | 1005.8 hPa | 0.76 mm | - | 31 W/m² | - |
| 1788522225 | 17.78° C | 99% | 1005.8 hPa | 4.06 mm | - | 38 W/m² | - |
| 1788521122 | 18.89° C | 99% | 1006.1 hPa | 4.06 mm | - | 42 W/m² | - |
| 1788520020 | 19.44° C | 99% | 1006 hPa | 4.06 mm | - | 56 W/m² | - |
| 1788518916 | 20° C | 99% | 1005.8 hPa | 0.76 mm | - | 49 W/m² | - |
| 1788517834 | 19.44° C | 99% | 1005.9 hPa | 0.76 mm | - | 82 W/m² | - |
| 1788516710 | 19.44° C | 99% | 1005.7 hPa | 0.76 mm | - | 35 W/m² | - |
| 1788515608 | 19.44° C | 99% | 1005.2 hPa | 0 mm | - | 67 W/m² | - |
| 1788513401 | 20° C | 99% | 1005.1 hPa | 0 mm | - | 38 W/m² | - |
| 1788512298 | 20° C | 99% | 1005.2 hPa | 0 mm | - | 63 W/m² | - |
* Rain latest hour (hover to see other rain measurements)
** Current wind speed in m/s (hover to see current wind gust speed)